Location: B
(0.0000°N, 0.0000°E)
Time: 15:00:13
(UTC+02:00)

Cosmos 1025 Rocket - Visible Passes

Search period start: 28 August 2015 00:00
Search period end: 07 September 2015 00:00
Orbit: 595 x 620 km, 82.5° (Epoch: 27 August)

Date Brightness Start Highest point End Pass type
(mag) Time Alt. Az. Time Alt. Az. Time Alt. Az.
30 Aug 4.9 20:30:28 10° NNW 20:34:31 36° W 20:38:34 10° SSW visible
31 Aug 6.6 07:02:52 10° ESE 07:03:50 11° E 07:05:10 10° ENE visible
31 Aug 6.1 20:45:01 10° NW 20:48:09 19° W 20:51:08 10° SW visible
01 Sep 5.8 07:14:13 10° SE 07:17:30 22° E 07:20:54 10° NE visible
02 Sep 4.3 07:27:02 10° SSE 07:31:06 46° E 07:35:12 10° NNE visible
05 Sep 6.2 06:31:59 10° SE 06:34:19 15° E 06:36:53 10° ENE visible
06 Sep 5.0 06:44:15 10° SSE 06:47:57 30° E 06:51:43 10° NNE visible
